Location: Cluny
(50.9333°N, 112.8167°W)
Time: 07:02:40
(UTC-06:00)

Hamsat - Visible Passes

Search period start: 20 October 2014 00:00
Search period end: 30 October 2014 00:00
Orbit: 592 x 629 km, 97.6° (Epoch: 19 October)

Date Brightness Start Highest point End Pass type
(mag) Time Alt. Az. Time Alt. Az. Time Alt. Az.
20 Oct ? 06:22:13 10° NE 06:24:58 17° E 06:27:43 10° SE visible
20 Oct ? 18:55:20 10° S 18:59:23 44° W 19:03:25 10° NNW visible
21 Oct ? 06:36:07 10° NE 06:39:28 23° E 06:42:48 10° SE visible
21 Oct ? 19:10:01 10° SSW 19:13:48 32° W 19:17:35 10° NNW visible
22 Oct ? 06:50:10 10° NNE 06:53:55 31° E 06:57:39 10° SSE visible
22 Oct ? 19:24:50 10° SSW 19:28:15 24° W 19:31:39 10° NW visible
23 Oct ? 07:04:19 10° NNE 07:08:20 42° E 07:12:19 10° S visible
23 Oct ? 19:39:52 10° SW 19:42:43 18° W 19:45:33 10° NW visible
24 Oct ? 07:18:33 10° NNE 07:22:42 59° E 07:26:51 10° S visible
24 Oct ? 19:55:17 10° WSW 19:57:12 13° W 19:59:07 10° WNW visible
25 Oct ? 07:32:49 10° NNE 07:37:02 82° ESE 07:41:15 10° SSW visible
26 Oct ? 06:12:38 10° NE 06:14:53 14° E 06:17:07 10° ESE visible
26 Oct ? 18:45:13 10° S 18:49:20 54° W 18:53:27 10° NNW visible
27 Oct ? 06:26:19 10° NE 06:29:20 19° E 06:32:22 10° SE visible
27 Oct ? 18:59:45 10° SSW 19:03:41 39° W 19:07:37 10° NNW visible
28 Oct ? 06:40:13 10° NE 06:43:45 26° E 06:47:18 10° SSE visible
28 Oct ? 19:14:25 10° SSW 19:18:03 28° W 19:21:42 10° NW visible
29 Oct ? 06:54:16 10° NNE 06:58:08 34° E 07:02:01 10° SSE visible
29 Oct ? 19:29:15 10° SW 19:32:27 21° W 19:35:40 10° NW visible
